CZ-3B R/B, 43649

Orbit data source: Space-Track

CZ-3B R/B, 43649 is space debris in HEO originally from a launch on Mon, 15 Oct 2018 UTC launched from the Xichang Space Center, China (XSC). Debris objects in space refer to the collection of defunct objects orbiting the Earth. Examples of debris include non-operational satellites, rocket bodies, and fragments generated from explosions, collisions, or faulty payload assembly.

Loading next visibility...
CZ-3B R/B details
Identifier
43649, 2018-078C
Orbit
HEO
Last TLE update21 hours ago
Origin
Flag of CNCASC (CN / PRC)
ManufacturerCALT
MissionSpacecraft
Bus & MotorCZ-3A STAGE 3, Unknown motor
Mass~2,800 kg wet, ~2,800 kg dry
Launch date (UTC)
2018-10-15 (6 years ago)
Launch vehicleUnknown
Launch site
Xichang Space Center, China (XSC)
Object type
Payload
Rocket body
Debris
Shape & HBRCyl + 1 Nozzle, 12.38 m
Radar Cross Section32.704 m², Large (>1 m²)

Expand to show TLE details & history

TLE from 21 hours ago
0 CZ-3B R/B
1 43649U 18078C   24360.98585235  .00000716  00000-0  11258-2 0  9993
2 43649  54.9393 178.6073 5480115 186.5676 161.4245  4.64084408104215
Epoch: 2024-12-25T23:39Z
Definitive object data (Epoch: 2024-12-25T23:39:37.643Z)
Latitude0.00002°
Longitude88.72555°
Altitude16,940.107 km
Speed2.817 km/s
True Right ascension11h 54m 24s
True Declination0° 00' 00"
Sunlit
Object was in daylight at TLE epoch
Visualization TLE readout
Latitude2.36887°
Longitude89.90145°
Altitude17,056.691 km
Speed2.787 km/s
Apparent Right ascension11h 20m 48s
Apparent Declination-6° 47' 36"
Sunlit
Object is in daylight
Visualization observer readout
Local Sidereal Time19:49:59
Azimuth290.503° WNW
Elevation-32.508°
Doppler factor1
Orbital elements
Apogee altitude17,124.193 km
Perigee altitude484.075 km
Semi-major axis15,182.271 km
Eccentricity0.5480115
Inclination54.9393°
RAAN178.6073°
Arg. of periapsis186.5676°
True anomaly173.48217°
Mean anomaly161.4245°
Eccentric anomaly167.96918°
Mean motion1.16021 °/min
BSTAR0.0011258
Orbital period310.29 mins
Loading maneuver chart data...
Loading historical data...
Loading historical data...
Loading historical data...
Loading historical data...
Loading historical data...
Loading historical data...
Loading historical data...
Other satellites on launch #78 in the year 2018 (2018-10-15 UTC)

CZ-3B R/B Visibility forecast

Observer location: undefined°, undefined

Span
Click to sort rows by Start time (UTC) header in descending order
Start Az.
Max El. time (UTC)
Max El. Az.
Max El.
End time (UTC)
End Az.
25 mins2024-12-26 22:39:10.033Z312.635° NW2024-12-26 22:59:10.033Z252.365° W39.305°2024-12-26 23:04:10.033Z167.629° S
196 mins2024-12-27 10:57:10.033Z172.227° S2024-12-27 13:26:10.033Z112.382° ESE43.545°2024-12-27 14:13:10.033Z47.881° ENE
108 mins2024-12-27 17:51:10.033Z270.507° WNW2024-12-27 19:28:10.033Z2.148° NNE39.664°2024-12-27 19:39:10.033Z79.104° E
|